Year,Month,Day,Hour,Minute,Value (Times are PST for temperature in C)
2016,06,30,00,00,16.60
2016,06,30,00,01,16.60
2016,06,30,00,02,16.60
2016,06,30,00,03,16.30
2016,06,30,00,04,16.20
2016,06,30,00,05,16.20
2016,06,30,00,06,16.00
2016,06,30,00,07,15.80
2016,06,30,00,08,15.60
2016,06,30,00,09,15.20
2016,06,30,00,10,15.00
2016,06,30,00,11,15.00
2016,06,30,00,12,14.90
2016,06,30,00,13,14.80
2016,06,30,00,14,14.80
2016,06,30,00,15,14.90
2016,06,30,00,16,14.90
2016,06,30,00,17,14.90
2016,06,30,00,18,15.00
2016,06,30,00,19,15.00
2016,06,30,00,20,15.00
2016,06,30,00,21,15.30
2016,06,30,00,22,15.10
2016,06,30,00,23,15.20
2016,06,30,00,24,15.30
2016,06,30,00,25,15.10
2016,06,30,00,26,15.00
2016,06,30,00,27,15.00
2016,06,30,00,28,15.10
2016,06,30,00,29,15.00
2016,06,30,00,30,15.00
2016,06,30,00,31,15.00
2016,06,30,00,32,14.90
2016,06,30,00,33,14.80
2016,06,30,00,34,14.80
2016,06,30,00,35,14.70
2016,06,30,00,36,14.60
2016,06,30,00,37,14.50
2016,06,30,00,38,14.50
2016,06,30,00,39,14.50
2016,06,30,00,40,14.50
2016,06,30,00,41,14.60
2016,06,30,00,42,14.60
2016,06,30,00,43,14.60
2016,06,30,00,44,14.60
2016,06,30,00,45,14.60
2016,06,30,00,46,14.60
2016,06,30,00,47,14.70
2016,06,30,00,48,14.70
2016,06,30,00,49,14.70
2016,06,30,00,50,14.60
2016,06,30,00,51,14.70
2016,06,30,00,52,14.70
2016,06,30,00,53,14.70
2016,06,30,00,54,14.80
2016,06,30,00,55,14.70
2016,06,30,00,56,14.70
2016,06,30,00,57,14.70
2016,06,30,00,58,14.60
2016,06,30,00,59,14.60
2016,06,30,01,00,14.60
2016,06,30,01,01,14.60
2016,06,30,01,02,14.60
2016,06,30,01,03,14.60
2016,06,30,01,04,14.70
2016,06,30,01,05,14.90
2016,06,30,01,06,15.00
2016,06,30,01,07,15.30
2016,06,30,01,08,15.60
2016,06,30,01,09,16.30
2016,06,30,01,10,18.00
2016,06,30,01,11,21.40
2016,06,30,01,12,23.40
2016,06,30,01,13,25.30
2016,06,30,01,14,26.50
2016,06,30,01,15,28.10
2016,06,30,01,16,29.40
2016,06,30,01,17,28.80
2016,06,30,01,18,27.90
2016,06,30,01,19,26.70
2016,06,30,01,20,25.40
2016,06,30,01,21,25.30
2016,06,30,01,22,25.30
2016,06,30,01,23,25.30
2016,06,30,04,36,14.30
2016,06,30,04,37,16.00
2016,06,30,04,38,17.70
2016,06,30,04,39,19.90
2016,06,30,04,40,19.90
2016,06,30,05,14,21.70
2016,06,30,05,15,21.20
2016,06,30,05,16,27.20
2016,06,30,05,17,27.80
2016,06,30,05,18,22.40
2016,06,30,05,19,20.70
2016,06,30,05,20,18.50
2016,06,30,05,21,18.40
2016,06,30,05,22,16.70
2016,06,30,05,23,16.70
2016,06,30,05,24,14.50
2016,06,30,05,25,14.70
2016,06,30,05,26,15.20
2016,06,30,05,27,18.20
2016,06,30,05,28,18.20
2016,06,30,05,29,26.00
2016,06,30,05,30,31.30
2016,06,30,05,31,21.10
2016,06,30,05,32,21.30
2016,06,30,05,33,20.50
2016,06,30,05,34,19.70
2016,06,30,05,35,21.30
2016,06,30,05,36,26.70
2016,06,30,05,37,32.90
2016,06,30,05,38,33.20
2016,06,30,05,39,37.70
2016,06,30,05,40,35.20
2016,06,30,05,41,38.40
2016,06,30,05,42,23.80
2016,06,30,05,43,19.70
2016,06,30,05,44,26.90
2016,06,30,05,45,25.50
2016,06,30,05,46,28.30
2016,06,30,05,47,41.40
2016,06,30,06,02,43.30
2016,06,30,06,03,41.10
2016,06,30,06,04,35.30
2016,06,30,06,05,29.60
2016,06,30,06,06,29.60
2016,06,30,06,08,35.50
2016,06,30,06,09,35.50
2016,06,30,06,10,35.50
2016,06,30,06,16,44.10
2016,06,30,06,17,43.60
2016,06,30,06,18,42.80
2016,06,30,06,19,42.40
2016,06,30,07,50,44.40
2016,06,30,07,51,44.40
2016,06,30,07,52,39.60
2016,06,30,07,53,33.80
2016,06,30,17,42,20.60
